Weather observations for the past three days for
Asheville, Asheville Regional Airport
Imperial (Metric)
Date Time (edt) Wind (mph) Vis. (mi.) Weather Sky Cond. Temperature (ºF) Relative Humidity Wind Chill (°F) Heat Index (°F) Pressure Precipitation (in)
Air Dwpt 6 hour altimeter (in) sea level (mb) 1 hr 3 hr 6 hr
Max. Min.
25 14:54 Vrbl 3 10.00 Fair CLR 87.1 57.9 37% 86 30.07 1015.4
25 13:54 S 3 10.00 Fair CLR 84.9 57.9 86 64 40% 84 30.08 1015.7
25 12:54 Vrbl 3 10.00 Fair CLR 82.9 57.9 43% 83 30.08 1015.5
25 11:54 Vrbl 5 10.00 Fair CLR 82.9 57.9 43% 83 30.09 1015.8
25 10:54 SW 3 10.00 Fair CLR 79 57.9 49% 80 30.1 1016.3
25 09:54 Calm 10.00 Fair CLR 75.9 59 56% 78 30.1 1016.2
25 08:54 Calm 10.00 Fair CLR 70 59 68% 30.1 1016.4
25 07:54 Calm 10.00 Fair CLR 64 57.9 64.9 59 81% 30.1 1016.4
25 06:54 Calm 10.00 Fair CLR 59 57.9 96% 30.09 1016.2
25 05:54 Calm 10.00 Fair CLR 60.1 57 90% 30.07 1015.6
25 04:54 Calm 10.00 Fair CLR 63 57.9 84% 30.08 1015.6
25 03:54 NW 3 10.00 Fair CLR 63 57.9 84% 30.06 1015.2
25 02:54 Calm 10.00 Fair CLR 63 59 87% 30.06 1015.1
25 01:54 Calm 10.00 Fair CLR 64.9 59 82 64.9 81% 30.06 1015.0
25 00:54 Calm 10.00 Fair CLR 70 57.9 66% 30.06 1014.7
24 23:54 N 3 10.00 Fair CLR 72 59 64% 30.05 1014.3
24 22:54 N 3 10.00 Fair CLR 73 57.9 59% 30.04 1014.0
24 21:54 Vrbl 3 10.00 Fair CLR 77 57 50% 79 30.03 1013.6
24 20:54 NW 6 10.00 Fair CLR 78.1 57 48% 79 30 1012.9
24 19:54 NW 15 G 28 10.00 Fair CLR 82 57 87.1 82 43% 82 29.98 1012.2
24 18:54 N 10 G 23 10.00 Fair CLR 84 55.9 38% 83 29.97 1011.8
24 17:54 N 14 G 25 10.00 Fair CLR 84.9 54 35% 83 29.97 1011.8
24 16:54 N 13 G 21 10.00 Fair CLR 86 55 35% 84 29.97 1011.7
24 15:54 N 9 G 25 10.00 Fair CLR 86 55 35% 84 29.97 1011.9
24 14:54 N 16 G 25 10.00 Fair CLR 86 54 33% 84 29.98 1012.0
24 13:54 N 14 G 24 10.00 Fair CLR 84.9 51.1 86 73 31% 83 30 1012.5
24 12:54 N 13 G 25 10.00 Fair CLR 84.9 55.9 37% 84 29.99 1012.4
24 11:54 N 14 G 25 10.00 Fair CLR 82.9 59 44% 83 29.99 1012.2
24 10:54 NW 16 G 28 10.00 Fair CLR 82 61 49% 83 29.98 1011.9
24 09:54 N 14 G 23 10.00 Fair CLR 79 64.9 62% 81 29.97 1011.6
24 08:54 NW 12 G 17 10.00 Fair CLR 77 66.9 71% 79 29.96 1011.1
24 07:54 N 5 10.00 Fair CLR 73 66 75 69.1 79% 29.94 1010.8 0.05
24 06:54 Calm 10.00 Fair CLR 69.1 66 90% 29.94 1010.6
24 05:54 N 5 10.00 Fair CLR 71.1 66 84% 29.93 1010.2
24 04:54 NW 6 10.00 A Few Clouds FEW095 69.1 66.9 93% 29.92 1009.9 0.05
24 03:54 N 9 10.00 A Few Clouds FEW090 FEW110 72 66.9 84% 29.93 1010.1 0.05
24 02:54 NW 9 9.00 Light Rain SCT110 73.9 66 76% 29.94 1010.4
24 01:54 Calm 10.00 Partly Cloudy SCT070 75 64 86 73.9 69% 77 29.93 1010.1
24 00:54 SW 3 10.00 Fair CLR 75 66 74% 76 29.94 1010.6
23 23:54 S 3 10.00 Partly Cloudy SCT070 SCT090 75.9 66 72% 77 29.95 1010.7
23 22:54 Calm 10.00 Overcast OVC080 77 64.9 66% 79 29.95 1010.7
23 21:54 Calm 10.00 A Few Clouds FEW100 78.1 64 62% 80 29.94 1010.7
23 20:54 NW 7 10.00 Fair CLR 82 63 53% 83 29.94 1010.7
23 19:54 N 8 10.00 Fair CLR 84.9 64 91.9 84.9 50% 86 29.93 1010.3
23 18:54 N 9 10.00 Overcast OVC060 87.1 64 46% 88 29.92 1010.2
23 17:54 SW 7 10.00 Mostly Cloudy BKN075 89.1 63 42% 90 29.92 1010.1
23 16:54 SW 3 10.00 A Few Clouds FEW070 90 61 38% 90 29.92 1010.2
23 15:54 SW 8 10.00 Partly Cloudy SCT075 91 60.1 35% 91 29.95 1010.9
23 14:54 Vrbl 5 10.00 A Few Clouds FEW060 FEW075 90 61 38% 90 29.98 1011.8
23 13:54 Vrbl 6 10.00 Mostly Cloudy BKN065 BKN080 90 61 90 69.1 38% 90 30 1012.6
23 12:54 Calm 10.00 Fair CLR 86 64.9 49% 88 30.03 1013.7
23 11:54 SW 3 10.00 Mostly Cloudy BKN043 BKN050 BKN070 82.9 66 57% 85 30.04 1014.2
23 10:54 Vrbl 7 10.00 Fair CLR 82.9 66 57% 85 30.05 1014.3
23 09:54 Calm 10.00 Fair CLR 81 68 65% 84 30.05 1014.3
23 08:54 Calm 10.00 Fair CLR 73 66 79% 30.06 1014.8
23 07:54 Calm 10.00 Overcast BKN070 OVC085 69.1 64.9 70 66 87% 30.07 1015.1
23 06:54 Calm 10.00 Fair CLR 66.9 64 91% 30.07 1015.0
23 05:54 Calm 10.00 Fair CLR 66 63 90% 30.07 1015.2
23 04:54 Calm 10.00 Fair CLR 66 64 93% 30.08 1015.5
23 03:54 Calm 10.00 Fair CLR 69.1 64 84% 30.08 1015.6
23 02:54 Calm 10.00 Fair CLR 70 64.9 84% 30.08 1015.6
23 01:54 Calm 10.00 Fair CLR 70 64.9 84 69.1 84% 30.09 1016.0
23 00:54 Calm 10.00 Fair CLR 72 64.9 79% 30.11 1016.6
22 23:54 S 3 10.00 Fair CLR 73 66 79% 30.12 1016.7
22 22:54 SE 3 10.00 Mostly Cloudy BKN070 75.9 66 72% 77 30.12 1016.8
22 21:54 S 5 10.00 Fair CLR 78.1 64.9 64% 80 30.11 1016.5
22 20:54 S 6 10.00 Fair CLR 80.1 64.9 60% 82 30.1 1016.2
22 19:54 SE 7 10.00 Fair CLR 84 63 89.1 84 49% 85 30.09 1016.1
22 18:54 S 7 10.00 Fair CLR 86 62.1 45% 87 30.09 1016.1
22 16:54 Vrbl 5 10.00 A Few Clouds FEW055 88 61 40% 88 30.11 1016.8
22 15:54 S 10 G 17 10.00 Fair CLR 88 61 40% 88 30.14 1017.5
Date Time (edt) Wind (mph) Vis. (mi.) Weather Sky Cond. Air Dwpt Max. Min. Relative Humidity Wind Chill (°F) Heat Index (°F) altimeter (in) sea level (mb) 1 hr 3 hr 6 hr
6 hour
Temperature (ºF) Pressure Precipitation (in)